GW2584 Weather Reports


Display with metric or nautical units.
time (UTC)temp
F
wind
direction
speed
MPH
gust
MPH
rain 1hr
in
rain 24hr
in
rain mn
in
humidity
%
barometer
mb
20260507061555 35 0 0.0 0.0 0.00 0.00 0.00 66 1018.1
20260507060057 34 0 0.0 0.0 0.00 0.00 0.00 69 1017.9
20260507054557 34 0 0.0 0.0 0.00 0.00 0.00 69 1017.6
20260507053058 34 0 0.0 0.0 0.00 0.00 0.00 69 1017.6
20260507051600 33 0 0.0 0.0 0.00 0.00 0.00 70 1017.8
20260507050058 33 0 0.0 0.0 0.00 0.00 0.00 74 1017.9
20260507044559 34 0 0.0 0.0 0.00 0.00 0.00 70 1018.0
20260507043100 32 0 0.0 0.0 0.00 0.00 0.00 74 1018.1
20260507041559 33 0 0.0 0.0 0.00 0.00 0.00 73 1018.2
20260507040111 32 0 0.0 0.0 0.00 0.00 0.00 78 1018.4
20260507034618 31 0 0.0 0.0 0.00 0.00 0.00 82 1018.3
20260507033105 31 0 0.0 0.0 0.00 0.00 0.00 84 1018.2
20260507031628 30 0 0.0 0.0 0.00 0.00 0.00 91 1018.3
20260507030101 30 0 0.0 0.0 0.00 0.00 0.00 93 1018.1
20260507024558 30 0 0.0 0.0 0.00 0.00 0.00 94 1018.0
20260507023057 30 0 0.0 0.0 0.00 0.00 0.00 93 1017.9
20260507021556 30 0 0.0 0.0 0.00 0.00 0.00 93 1017.8
20260507020058 30 0 0.0 0.0 0.00 0.00 0.00 93 1017.5
20260507014602 31 0 0.0 0.0 0.00 0.00 0.00 92 1017.3
20260507013117 31 0 0.0 0.0 0.00 0.00 0.00 92 1017.3
20260507011607 31 0 0.0 0.0 0.00 0.00 0.00 92 1017.4
20260507010109 31 0 0.0 0.0 0.00 0.00 0.00 91 1017.6
20260507004559 32 0 0.0 0.0 0.00 0.00 0.00 91 1017.5
20260507003059 32 0 0.0 0.0 0.00 0.00 0.00 91 1017.7
20260507001557 31 0 0.0 0.0 0.00 0.00 0.00 90 1017.8
20260507000057 31 0 0.0 0.0 0.00 0.00 0.00 90 1018.0
20260506234559 31 0 0.0 0.0 0.00 0.00 0.00 90 1018.1
20260506233108 31 0 0.0 0.0 0.00 0.00 0.00 89 1018.1
20260506231605 31 0 0.0 0.0 0.00 0.00 0.00 89 1018.1
20260506230105 31 0 0.0 0.0 0.00 0.00 0.00 89 1017.8
20260506224556 31 0 0.0 0.0 0.00 0.00 0.00 88 1018.0
20260506223059 32 0 0.0 0.0 0.00 0.00 0.00 87 1018.0
20260506221604 32 0 0.0 0.0 0.00 0.00 0.00 87 1018.1
20260506220100 32 0 0.0 0.0 0.00 0.00 0.00 87 1018.4
20260506214603 30 0 0.0 0.0 0.00 0.00 0.00 89 1018.5
20260506213101 30 0 0.0 0.0 0.00 0.00 0.00 88 1018.7
20260506211609 30 0 0.0 0.0 0.00 0.00 0.00 88 1018.8
20260506210058 30 0 0.0 0.0 0.00 0.00 0.00 88 1018.9
20260506204559 30 0 0.0 0.0 0.00 0.00 0.00 87 1019.1
20260506203055 30 0 0.0 0.0 0.00 0.00 0.00 89 1019.1
20260506201558 30 0 0.0 0.0 0.00 0.00 0.00 88 1019.2
20260506200055 29 0 0.0 0.0 0.00 0.00 0.00 89 1019.4
20260506194556 29 0 0.0 0.0 0.00 0.00 0.00 89 1019.4
20260506193055 29 0 0.0 0.0 0.00 0.00 0.00 90 1019.4
20260506191555 30 0 0.0 0.0 0.00 0.00 0.00 89 1019.6
20260506190059 31 0 0.0 0.0 0.00 0.00 0.00 89 1019.5
20260506184559 30 0 0.0 0.0 0.00 0.00 0.00 88 1019.7
20260506183056 31 0 0.0 0.0 0.00 0.00 0.00 87 1019.8
20260506181556 30 0 0.0 0.0 0.00 0.00 0.00 88 1019.9
20260506180058 29 0 0.0 0.0 0.00 0.00 0.00 91 1020.0
20260506174554 29 0 0.0 0.0 0.00 0.00 0.00 91 1020.0
20260506173108 28 0 0.0 0.0 0.00 0.00 0.00 91 1019.9
20260506171610 27 0 0.0 0.0 0.00 0.00 0.00 90 1019.9
20260506164618 27 0 0.0 0.0 0.00 0.00 0.00 92 1019.6
20260506163106 26 0 0.0 0.0 0.00 0.00 0.00 92 1019.5
20260506161559 27 0 0.0 0.0 0.00 0.00 0.00 92 1019.3
20260506160112 27 0 0.0 0.0 0.00 0.00 0.00 92 1018.9
20260506154558 27 0 0.0 0.0 0.00 0.00 0.00 92 1018.9
20260506153103 26 0 0.0 0.0 0.00 0.00 0.00 93 1018.9
20260506151601 26 0 0.0 0.0 0.00 0.00 0.00 92 1018.7
20260506150055 27 0 0.0 0.0 0.00 0.00 0.00 92 1018.7
20260506144557 27 0 0.0 0.0 0.00 0.00 0.00 93 1018.6
20260506143059 26 0 0.0 0.0 0.00 0.00 0.00 93 1018.4
20260506141610 26 0 0.0 0.0 0.00 0.00 0.00 93 1018.3
20260506140058 25 0 0.0 0.0 0.00 0.00 0.00 93 1018.3
20260506134555 25 0 0.0 0.0 0.00 0.00 0.00 93 1018.2
20260506133107 25 0 0.0 0.0 0.00 0.00 0.00 93 1018.2
20260506131556 26 0 0.0 0.0 0.00 0.00 0.00 93 1018.0
20260506130058 26 0 0.0 0.0 0.00 0.00 0.00 94 1017.4
20260506124557 26 0 0.0 0.0 0.00 0.00 0.00 94 1017.0
20260506123058 26 0 0.0 0.0 0.00 0.00 0.00 94 1016.7
20260506121613 26 0 0.0 0.0 0.00 0.00 0.00 94 1016.7
20260506120125 26 0 0.0 0.0 0.00 0.00 0.00 94 1016.7
20260506114606 26 0 0.0 0.0 0.00 0.00 0.00 94 1016.3
20260506113110 26 0 0.0 0.0 0.00 0.00 0.00 93 1016.4
20260506111609 26 0 0.0 0.0 0.00 0.00 0.00 93 1016.2
20260506110112 26 0 0.0 0.0 0.00 0.00 0.00 94 1016.2
20260506104605 26 0 0.0 0.0 0.00 0.00 0.00 94 1016.2
20260506103100 25 0 0.0 0.0 0.00 0.00 0.00 93 1016.2
20260506101558 25 0 0.0 0.0 0.00 0.00 0.00 93 1016.2
20260506100058 26 0 0.0 0.0 0.00 0.00 0.00 93 1016.4
20260506094555 26 0 0.0 0.0 0.00 0.07 0.00 94 1016.6
20260506093058 26 0 0.0 0.0 0.00 0.07 0.00 94 1016.4
20260506091557 26 0 0.0 0.0 0.00 0.07 0.00 94 1016.2
20260506090057 26 0 0.0 0.0 0.00 0.07 0.00 94 1016.3
20260506084556 26 0 0.0 0.0 0.00 0.07 0.00 93 1016.6
20260506083059 26 0 0.0 0.0 0.00 0.07 0.00 94 1016.5
20260506081556 26 0 0.0 0.0 0.00 0.07 0.00 94 1016.6
20260506073102 27 0 0.0 0.0 0.00 0.08 0.00 94 1017.1
20260506071558 27 0 0.0 0.0 0.00 0.08 0.00 94 1016.4
20260506070116 27 0 0.0 0.0 0.00 0.08 0.00 94 1016.5